Location: ??????????
(54.8537°N, 38.8755°E)
Time: 21:53:37
(UTC+00:00)

Tiros 1 - Pass Details

Date: 16 September 2024
Orbit: 623 x 654 km, 48.4° (Epoch: 09 October)

Event Time Altitude Azimuth Distance (km) Brightness Sun altitude
Rises 13:35:46 0° 229° (SW) 2,894 11.8 16.5°
Reaches altitude 10° 13:38:20 10° 217° (SW) 1,991 10.8 16.1°
Maximum altitude 13:42:11 27° 160° (SSE) 1,203 8.7 15.6°
Drops below altitude 10° 13:46:03 10° 103° (ESE) 2,006 9.2 15.1°
Sets 13:48:38 0° 91° (E) 2,920 9.9 14.7°
